Location: Red Bud (historical)
(37.7759°N, 88.4053°W)
Time: 00:13:22
(UTC+00:00)

CZ-4B R/B - Pass Details

Date: 29 October 2020
Orbit: 808 x 882 km, 99.1° (Epoch: 28 November)

Event Time Altitude Azimuth Distance (km) Brightness Sun altitude
Rises 23:26:03 0° 169° (S) 3,455 6.4 -6.3°
Reaches altitude 10° 23:28:27 10° 171° (S) 2,514 5.7 -6.7°
Maximum altitude 23:34:02 74° 257° (WSW) 898 3.6 -7.8°
Drops below altitude 10° 23:39:34 10° 342° (NNW) 2,486 5.7 -8.9°
Sets 23:41:56 0° 345° (NNW) 3,414 6.4 -9.3°
